Time,TemperatureF,DewpointF,PressureIn,WindDirection,WindDirectionDegrees,WindSpeedMPH,WindSpeedGustMPH,Humidity,HourlyPrecipIn,Conditions,Clouds,dailyrainin,SoftwareType,DateUTC
2013-01-02 00:03:00,42.0,42.0,29.97,West,277,3.0,3.0,99,0.01,,,0.01,weatherlink.com 1.10,2013-01-02 05:03:00,
2013-01-02 00:18:00,41.8,42.0,29.99,WNW,296,0.0,3.0,99,0.01,,,0.01,weatherlink.com 1.10,2013-01-02 05:18:00,
2013-01-02 00:33:00,41.5,41.0,29.97,NW,304,0.0,2.0,99,0.01,,,0.01,weatherlink.com 1.10,2013-01-02 05:33:00,
2013-01-02 00:48:00,41.4,41.0,29.95,NW,304,0.0,3.0,99,0.01,,,0.01,weatherlink.com 1.10,2013-01-02 05:48:00,
2013-01-02 01:03:00,41.3,41.0,29.95,NW,304,0.0,2.0,99,0.00,,,0.01,weatherlink.com 1.10,2013-01-02 06:03:00,
2013-01-02 01:18:00,41.1,41.0,29.93,NNW,342,0.0,3.0,99,0.00,,,0.01,weatherlink.com 1.10,2013-01-02 06:18:00,
2013-01-02 01:33:00,41.1,41.0,29.95,NNW,342,1.0,3.0,99,0.00,,,0.01,weatherlink.com 1.10,2013-01-02 06:33:00,
2013-01-02 01:48:00,41.2,41.0,29.95,NNW,342,1.0,2.0,99,0.00,,,0.01,weatherlink.com 1.10,2013-01-02 06:48:00,
2013-01-02 02:03:00,40.9,41.0,29.95,NNW,340,2.0,2.0,99,0.00,,,0.01,weatherlink.com 1.10,2013-01-02 07:03:00,
2013-01-02 02:18:00,40.5,40.0,29.95,WNW,289,2.0,10.0,99,0.00,,,0.01,weatherlink.com 1.10,2013-01-02 07:18:00,
2013-01-02 02:33:00,40.3,40.0,29.96,West,279,2.0,8.0,99,0.00,,,0.01,weatherlink.com 1.10,2013-01-02 07:33:00,
2013-01-02 02:48:00,39.9,40.0,29.97,NW,306,4.0,9.0,99,0.00,,,0.01,weatherlink.com 1.10,2013-01-02 07:48:00,
2013-01-02 03:04:00,39.6,39.0,29.97,WNW,300,6.0,11.0,99,0.00,,,0.01,weatherlink.com 1.10,2013-01-02 08:04:00,
2013-01-02 03:19:00,39.2,39.0,29.98,NNW,339,6.0,10.0,99,0.00,,,0.01,weatherlink.com 1.10,2013-01-02 08:19:00,
2013-01-02 03:34:00,38.9,39.0,29.97,WNW,286,4.0,6.0,99,0.00,,,0.01,weatherlink.com 1.10,2013-01-02 08:34:00,
2013-01-02 03:49:00,38.5,38.0,29.98,NW,317,2.0,7.0,99,0.00,,,0.01,weatherlink.com 1.10,2013-01-02 08:49:00,
2013-01-02 04:04:00,37.9,38.0,29.97,NNW,346,3.0,6.0,99,0.00,,,0.01,weatherlink.com 1.10,2013-01-02 09:04:00,
2013-01-02 04:19:00,37.1,37.0,29.98,West,280,3.0,8.0,99,0.00,,,0.01,weatherlink.com 1.10,2013-01-02 09:19:00,
2013-01-02 04:34:00,36.8,37.0,29.98,WSW,240,3.0,7.0,99,0.00,,,0.01,weatherlink.com 1.10,2013-01-02 09:34:00,
2013-01-02 04:49:00,36.4,36.0,29.99,NW,323,1.0,7.0,99,0.00,,,0.01,weatherlink.com 1.10,2013-01-02 09:49:00,
2013-01-02 05:04:00,36.1,36.0,30.00,NW,320,3.0,4.0,99,0.00,,,0.01,weatherlink.com 1.10,2013-01-02 10:04:00,
2013-01-02 05:19:00,36.3,36.0,30.00,WSW,258,0.0,8.0,99,0.00,,,0.01,weatherlink.com 1.10,2013-01-02 10:19:00,
2013-01-02 05:34:00,36.8,37.0,29.98,NW,319,1.0,9.0,99,0.00,,,0.01,weatherlink.com 1.10,2013-01-02 10:34:00,
2013-01-02 05:49:00,37.0,37.0,29.99,NE,50,0.0,4.0,99,0.00,,,0.01,weatherlink.com 1.10,2013-01-02 10:49:00,
2013-01-02 06:04:00,36.9,36.0,29.98,NW,321,0.0,2.0,98,0.00,,,0.01,weatherlink.com 1.10,2013-01-02 11:04:00,
2013-01-02 06:19:00,36.7,36.0,29.99,WNW,294,0.0,3.0,98,0.00,,,0.01,weatherlink.com 1.10,2013-01-02 11:19:00,
2013-01-02 06:25:00,36.7,35.9,29.99,WNW,294,1.0,1.0,97,0.00,,,0.01,Wunderground v.1.15,2013-01-02 11:25:00,
2013-01-02 06:30:00,36.5,35.7,29.99,WNW,294,1.0,4.0,97,0.00,,,0.01,Wunderground v.1.15,2013-01-02 11:30:00,
2013-01-02 06:35:00,36.4,35.6,29.99,WNW,294,0.0,2.0,97,0.00,,,0.01,Wunderground v.1.15,2013-01-02 11:35:00,
2013-01-02 06:40:00,36.2,35.4,30.00,WNW,294,1.0,2.0,97,0.00,,,0.01,Wunderground v.1.15,2013-01-02 11:40:00,
2013-01-02 06:50:00,36.0,36.0,30.00,WNW,294,2.0,2.0,98,0.00,,,0.01,weatherlink.com 1.10,2013-01-02 11:50:00,
2013-01-02 07:00:00,35.6,35.1,30.00,WNW,294,1.0,2.0,98,0.00,,,0.01,Wunderground v.1.15,2013-01-02 12:00:00,
2013-01-02 07:05:00,35.5,35.0,30.00,WNW,294,1.0,3.0,98,0.00,,,0.01,Wunderground v.1.15,2013-01-02 12:05:00,
2013-01-02 07:10:00,35.5,35.0,30.01,WNW,294,2.0,2.0,98,0.00,,,0.01,Wunderground v.1.15,2013-01-02 12:10:00,
2013-01-02 07:20:00,35.5,35.0,30.01,WNW,302,3.0,3.0,98,0.00,,,0.01,weatherlink.com 1.10,2013-01-02 12:20:00,
2013-01-02 07:25:00,35.6,35.1,30.02,North,360,1.0,3.0,98,0.00,,,0.01,Wunderground v.1.15,2013-01-02 12:25:00,
2013-01-02 07:30:00,35.6,35.1,30.01,North,351,1.0,1.0,98,0.00,,,0.01,Wunderground v.1.15,2013-01-02 12:30:00,
2013-01-02 07:36:00,35.5,35.0,30.01,NNW,338,0.0,3.0,98,0.00,,,0.01,weatherlink.com 1.10,2013-01-02 12:36:00,
2013-01-02 07:45:00,35.4,34.9,30.01,NNW,338,0.0,1.0,98,0.00,,,0.01,Wunderground v.1.15,2013-01-02 12:45:00,
2013-01-02 07:50:00,35.4,35.0,30.01,NNW,338,0.0,2.0,98,0.00,,,0.01,weatherlink.com 1.10,2013-01-02 12:50:00,
2013-01-02 08:00:00,35.3,34.8,30.02,NNW,333,0.0,0.0,98,0.00,,,0.01,Wunderground v.1.15,2013-01-02 13:00:00,
2013-01-02 08:06:00,35.3,35.0,30.02,NNW,333,0.0,1.0,98,0.00,,,0.01,weatherlink.com 1.10,2013-01-02 13:06:00,
2013-01-02 08:15:00,35.3,34.8,30.02,NNW,333,0.0,0.0,98,0.00,,,0.01,Wunderground v.1.15,2013-01-02 13:15:00,
2013-01-02 08:20:00,35.4,34.9,30.03,NNW,333,0.0,0.0,98,0.00,,,0.01,Wunderground v.1.15,2013-01-02 13:20:00,
2013-01-02 08:30:00,35.3,34.8,30.02,NNW,333,0.0,0.0,98,0.00,,,0.01,Wunderground v.1.15,2013-01-02 13:30:00,
2013-01-02 08:35:00,35.2,34.7,30.02,NNW,333,0.0,0.0,98,0.00,,,0.01,Wunderground v.1.15,2013-01-02 13:35:00,
2013-01-02 08:45:00,35.1,34.6,30.04,NNW,333,0.0,1.0,98,0.00,,,0.01,Wunderground v.1.15,2013-01-02 13:45:00,
2013-01-02 08:50:00,35.0,34.5,30.04,NNW,333,0.0,1.0,98,0.00,,,0.01,Wunderground v.1.15,2013-01-02 13:50:00,
2013-01-02 09:00:00,34.9,34.4,30.04,NNW,333,1.0,1.0,98,0.00,,,0.01,Wunderground v.1.15,2013-01-02 14:00:00,
2013-01-02 09:05:00,35.0,34.5,30.05,NNW,333,0.0,1.0,98,0.00,,,0.01,Wunderground v.1.15,2013-01-02 14:05:00,
2013-01-02 09:10:00,35.1,34.6,30.05,NNW,333,0.0,1.0,98,0.00,,,0.01,Wunderground v.1.15,2013-01-02 14:10:00,
2013-01-02 09:20:00,35.6,35.3,30.04,NNW,333,0.0,0.0,99,0.00,,,0.01,Wunderground v.1.15,2013-01-02 14:20:00,
2013-01-02 09:25:00,35.7,35.4,30.05,NNW,333,0.0,1.0,99,0.00,,,0.01,Wunderground v.1.15,2013-01-02 14:25:00,
2013-01-02 09:30:00,35.8,35.5,30.05,NNW,333,1.0,1.0,99,0.00,,,0.01,Wunderground v.1.15,2013-01-02 14:30:00,
2013-01-02 09:37:00,35.6,35.0,30.04,NNW,333,0.0,2.0,99,0.00,,,0.01,weatherlink.com 1.10,2013-01-02 14:37:00,
2013-01-02 09:45:00,35.9,35.6,30.08,West,281,1.0,1.0,99,0.00,,,0.01,Wunderground v.1.15,2013-01-02 14:45:00,
2013-01-02 09:50:00,35.8,35.5,30.06,West,281,1.0,1.0,99,0.00,,,0.01,Wunderground v.1.15,2013-01-02 14:50:00,
2013-01-02 10:00:00,36.4,36.1,30.06,West,281,0.0,0.0,99,0.00,,,0.01,Wunderground v.1.15,2013-01-02 15:00:00,
2013-01-02 10:07:00,36.7,37.0,30.05,West,281,0.0,1.0,99,0.00,,,0.01,weatherlink.com 1.10,2013-01-02 15:07:00,
2013-01-02 10:15:00,37.1,36.8,30.07,West,281,0.0,0.0,99,0.00,,,0.01,Wunderground v.1.15,2013-01-02 15:15:00,
2013-01-02 10:20:00,36.9,36.6,30.06,West,281,0.0,0.0,99,0.00,,,0.01,Wunderground v.1.15,2013-01-02 15:20:00,
2013-01-02 10:25:00,36.9,36.6,30.07,West,281,0.0,0.0,99,0.00,,,0.01,Wunderground v.1.15,2013-01-02 15:25:00,
2013-01-02 10:35:00,37.3,37.0,30.06,West,281,0.0,0.0,99,0.00,,,0.01,Wunderground v.1.15,2013-01-02 15:35:00,
2013-01-02 10:40:00,37.4,37.1,30.07,West,281,0.0,0.0,99,0.00,,,0.01,Wunderground v.1.15,2013-01-02 15:40:00,
2013-01-02 10:50:00,36.8,36.5,30.07,West,281,0.0,0.0,99,0.00,,,0.01,Wunderground v.1.15,2013-01-02 15:50:00,
2013-01-02 10:55:00,36.9,36.6,30.07,West,281,0.0,0.0,99,0.00,,,0.01,Wunderground v.1.15,2013-01-02 15:55:00,
2013-01-02 11:00:00,37.0,36.7,30.07,West,281,0.0,0.0,99,0.00,,,0.01,Wunderground v.1.15,2013-01-02 16:00:00,
2013-01-02 11:15:00,37.6,37.3,30.06,WNW,282,0.0,0.0,99,0.00,,,0.01,Wunderground v.1.15,2013-01-02 16:15:00,
2013-01-02 11:20:00,37.8,37.5,30.05,West,281,0.0,0.0,99,0.00,,,0.01,Wunderground v.1.15,2013-01-02 16:20:00,
2013-01-02 11:25:00,38.0,37.7,30.06,West,281,0.0,0.0,99,0.00,,,0.01,Wunderground v.1.15,2013-01-02 16:25:00,
2013-01-02 11:30:00,38.3,38.0,30.06,West,281,0.0,0.0,99,0.00,,,0.01,Wunderground v.1.15,2013-01-02 16:30:00,
2013-01-02 11:38:00,37.6,37.0,30.08,WNW,288,2.0,3.0,99,0.00,,,0.01,weatherlink.com 1.10,2013-01-02 16:38:00,
2013-01-02 11:45:00,36.9,36.6,30.08,WNW,288,1.0,1.0,99,0.00,,,0.01,Wunderground v.1.15,2013-01-02 16:45:00,
2013-01-02 11:50:00,36.6,36.3,30.07,WNW,288,1.0,1.0,99,0.00,,,0.01,Wunderground v.1.15,2013-01-02 16:50:00,
2013-01-02 11:55:00,36.4,36.1,30.06,WNW,288,0.0,1.0,99,0.00,,,0.01,Wunderground v.1.15,2013-01-02 16:55:00,
2013-01-02 12:00:00,36.4,36.1,30.06,WNW,288,0.0,0.0,99,0.00,,,0.01,Wunderground v.1.15,2013-01-02 17:00:00,
2013-01-02 12:09:00,37.1,37.0,30.05,WNW,288,0.0,1.0,99,0.00,,,0.01,weatherlink.com 1.10,2013-01-02 17:09:00,
2013-01-02 12:15:00,37.6,37.3,30.06,WNW,288,0.0,1.0,99,0.00,,,0.01,Wunderground v.1.15,2013-01-02 17:15:00,
2013-01-02 12:20:00,37.5,37.2,30.06,WNW,288,0.0,0.0,99,0.00,,,0.01,Wunderground v.1.15,2013-01-02 17:20:00,
2013-01-02 12:25:00,37.2,36.9,30.05,WNW,288,0.0,0.0,99,0.00,,,0.01,Wunderground v.1.15,2013-01-02 17:25:00,
2013-01-02 12:30:00,37.4,37.1,30.06,WNW,288,0.0,1.0,99,0.00,,,0.01,Wunderground v.1.15,2013-01-02 17:30:00,
2013-01-02 12:39:00,37.5,37.0,30.05,WNW,288,0.0,2.0,99,0.00,,,0.01,weatherlink.com 1.10,2013-01-02 17:39:00,
2013-01-02 12:45:00,37.4,37.1,30.05,WNW,288,0.0,0.0,99,0.00,,,0.01,Wunderground v.1.15,2013-01-02 17:45:00,
2013-01-02 12:50:00,37.5,37.2,30.05,WNW,288,0.0,0.0,99,0.00,,,0.01,Wunderground v.1.15,2013-01-02 17:50:00,
2013-01-02 13:00:00,37.9,37.6,30.05,WNW,288,0.0,0.0,99,0.00,,,0.01,Wunderground v.1.15,2013-01-02 18:00:00,
2013-01-02 13:09:00,38.2,38.0,30.05,WNW,288,0.0,1.0,99,0.00,,,0.01,weatherlink.com 1.10,2013-01-02 18:09:00,
2013-01-02 13:15:00,38.0,37.7,30.05,WNW,288,0.0,0.0,99,0.00,,,0.01,Wunderground v.1.15,2013-01-02 18:15:00,
2013-01-02 13:24:00,38.1,38.0,30.05,WNW,288,0.0,1.0,99,0.00,,,0.01,weatherlink.com 1.10,2013-01-02 18:24:00,
2013-01-02 13:30:00,38.1,37.8,30.03,WNW,288,0.0,0.0,99,0.00,,,0.01,Wunderground v.1.15,2013-01-02 18:30:00,
2013-01-02 13:40:00,38.0,38.0,30.03,WNW,288,0.0,2.0,99,0.00,,,0.01,weatherlink.com 1.10,2013-01-02 18:40:00,
2013-01-02 13:50:00,38.2,37.9,30.04,WNW,288,0.0,0.0,99,0.00,,,0.01,Wunderground v.1.15,2013-01-02 18:50:00,
2013-01-02 13:56:00,38.1,38.0,30.04,WNW,288,0.0,1.0,99,0.00,,,0.01,weatherlink.com 1.10,2013-01-02 18:56:00,
2013-01-02 14:05:00,38.4,38.1,30.04,WNW,288,0.0,2.0,99,0.00,,,0.01,Wunderground v.1.15,2013-01-02 19:05:00,
2013-01-02 14:10:00,38.2,37.9,30.04,WNW,288,0.0,0.0,99,0.00,,,0.01,Wunderground v.1.15,2013-01-02 19:10:00,
2013-01-02 14:15:00,37.9,37.6,30.03,WNW,288,0.0,0.0,99,0.00,,,0.01,Wunderground v.1.15,2013-01-02 19:15:00,
2013-01-02 14:20:00,37.9,37.6,30.03,WNW,288,0.0,0.0,99,0.00,,,0.01,Wunderground v.1.15,2013-01-02 19:20:00,
2013-01-02 14:30:00,38.0,37.7,30.04,WNW,288,0.0,0.0,99,0.00,,,0.01,Wunderground v.1.15,2013-01-02 19:30:00,
2013-01-02 14:40:00,38.3,38.0,30.03,WNW,288,0.0,1.0,99,0.00,,,0.01,weatherlink.com 1.10,2013-01-02 19:40:00,
2013-01-02 14:45:00,38.7,38.4,30.03,WNW,288,0.0,0.0,99,0.00,,,0.01,Wunderground v.1.15,2013-01-02 19:45:00,
2013-01-02 14:50:00,39.1,38.8,30.04,WNW,288,0.0,0.0,99,0.00,,,0.01,Wunderground v.1.15,2013-01-02 19:50:00,
2013-01-02 14:56:00,39.1,39.0,30.04,WNW,288,0.0,1.0,99,0.00,,,0.01,weatherlink.com 1.10,2013-01-02 19:56:00,
2013-01-02 15:05:00,38.6,38.3,30.05,WNW,288,0.0,0.0,99,0.00,,,0.01,Wunderground v.1.15,2013-01-02 20:05:00,
2013-01-02 15:10:00,38.2,37.9,30.05,WNW,288,0.0,0.0,99,0.00,,,0.01,Wunderground v.1.15,2013-01-02 20:10:00,
2013-01-02 15:20:00,37.8,37.5,30.05,WNW,288,0.0,0.0,99,0.00,,,0.01,Wunderground v.1.15,2013-01-02 20:20:00,
2013-01-02 15:25:00,37.5,37.0,30.05,WNW,288,0.0,0.0,98,0.00,,,0.01,Wunderground v.1.15,2013-01-02 20:25:00,
2013-01-02 15:30:00,37.5,37.0,30.05,WNW,288,0.0,0.0,98,0.00,,,0.01,Wunderground v.1.15,2013-01-02 20:30:00,
2013-01-02 15:40:00,37.8,37.3,30.04,WNW,288,0.0,0.0,98,0.00,,,0.01,Wunderground v.1.15,2013-01-02 20:40:00,
2013-01-02 15:50:00,38.6,38.3,30.04,WNW,288,0.0,0.0,99,0.00,,,0.01,Wunderground v.1.15,2013-01-02 20:50:00,
2013-01-02 15:55:00,38.6,38.3,30.05,WNW,288,0.0,0.0,99,0.00,,,0.01,Wunderground v.1.15,2013-01-02 20:55:00,
2013-01-02 16:00:00,38.6,38.3,30.05,WNW,288,0.0,0.0,99,0.00,,,0.01,Wunderground v.1.15,2013-01-02 21:00:00,
2013-01-02 16:10:00,38.2,37.9,30.06,WNW,288,0.0,1.0,99,0.00,,,0.01,Wunderground v.1.15,2013-01-02 21:10:00,
2013-01-02 16:15:00,38.0,37.5,30.05,WNW,288,0.0,1.0,98,0.00,,,0.01,Wunderground v.1.15,2013-01-02 21:15:00,
2013-01-02 16:20:00,37.8,37.3,30.05,WNW,288,0.0,0.0,98,0.00,,,0.01,Wunderground v.1.15,2013-01-02 21:20:00,
2013-01-02 16:26:00,37.9,37.0,30.06,WNW,288,0.0,1.0,98,0.00,,,0.01,weatherlink.com 1.10,2013-01-02 21:26:00,
2013-01-02 16:35:00,37.9,37.4,30.05,WNW,288,0.0,1.0,98,0.00,,,0.01,Wunderground v.1.15,2013-01-02 21:35:00,
2013-01-02 16:40:00,37.8,37.3,30.05,WNW,288,0.0,0.0,98,0.00,,,0.01,Wunderground v.1.15,2013-01-02 21:40:00,
2013-01-02 16:50:00,37.7,37.2,30.06,WNW,288,0.0,1.0,98,0.00,,,0.01,Wunderground v.1.15,2013-01-02 21:50:00,
2013-01-02 16:55:00,37.4,36.9,30.06,WNW,288,0.0,1.0,98,0.00,,,0.01,Wunderground v.1.15,2013-01-02 21:55:00,
2013-01-02 17:00:00,37.0,36.5,30.06,WNW,288,1.0,1.0,98,0.00,,,0.01,Wunderground v.1.15,2013-01-02 22:00:00,
2013-01-02 17:10:00,36.5,35.5,30.08,WNW,288,1.0,1.0,96,0.00,,,0.01,Wunderground v.1.15,2013-01-02 22:10:00,
2013-01-02 17:15:00,36.4,35.6,30.07,WNW,288,0.0,1.0,97,0.00,,,0.01,Wunderground v.1.15,2013-01-02 22:15:00,
2013-01-02 17:25:00,36.0,33.9,30.07,North,5,1.0,1.0,92,0.00,,,0.01,Wunderground v.1.15,2013-01-02 22:25:00,
2013-01-02 17:30:00,36.0,33.9,30.07,North,5,0.0,2.0,92,0.00,,,0.01,Wunderground v.1.15,2013-01-02 22:30:00,
2013-01-02 17:40:00,36.1,33.7,30.08,North,5,1.0,1.0,91,0.00,,,0.01,Wunderground v.1.15,2013-01-02 22:40:00,
2013-01-02 17:45:00,36.2,34.1,30.08,North,5,1.0,1.0,92,0.00,,,0.01,Wunderground v.1.15,2013-01-02 22:45:00,
2013-01-02 17:50:00,36.2,34.4,30.08,North,5,0.0,0.0,93,0.00,,,0.01,Wunderground v.1.15,2013-01-02 22:50:00,
2013-01-02 17:58:00,36.6,35.0,30.08,North,5,1.0,3.0,94,0.00,,,0.01,weatherlink.com 1.10,2013-01-02 22:58:00,
2013-01-02 18:05:00,36.8,35.2,30.08,North,9,0.0,1.0,94,0.00,,,0.01,Wunderground v.1.15,2013-01-02 23:05:00,
2013-01-02 18:10:00,36.7,35.4,30.08,North,9,0.0,0.0,95,0.00,,,0.01,Wunderground v.1.15,2013-01-02 23:10:00,
2013-01-02 18:15:00,36.7,35.1,30.09,North,9,0.0,0.0,94,0.00,,,0.01,Wunderground v.1.15,2013-01-02 23:15:00,
2013-01-02 18:20:00,36.8,35.0,30.09,North,9,0.0,0.0,93,0.00,,,0.01,Wunderground v.1.15,2013-01-02 23:20:00,
2013-01-02 18:28:00,36.9,35.0,30.10,North,9,0.0,1.0,93,0.00,,,0.01,weatherlink.com 1.10,2013-01-02 23:28:00,
2013-01-02 18:35:00,36.8,34.1,30.09,North,9,0.0,0.0,90,0.00,,,0.01,Wunderground v.1.15,2013-01-02 23:35:00,
2013-01-02 18:40:00,36.8,35.0,30.08,North,9,0.0,0.0,93,0.00,,,0.01,Wunderground v.1.15,2013-01-02 23:40:00,
2013-01-02 18:50:00,36.5,35.2,30.08,North,9,0.0,0.0,95,0.00,,,0.01,Wunderground v.1.15,2013-01-02 23:50:00,
2013-01-02 18:58:00,36.4,35.0,30.09,North,9,0.0,0.0,96,0.00,,,0.01,weatherlink.com 1.10,2013-01-02 23:58:00,
2013-01-02 19:05:00,36.3,35.5,30.10,North,9,0.0,0.0,97,0.00,,,0.01,Wunderground v.1.15,2013-01-03 00:05:00,
2013-01-02 19:10:00,36.4,35.6,30.10,North,9,0.0,0.0,97,0.00,,,0.01,Wunderground v.1.15,2013-01-03 00:10:00,
2013-01-02 19:15:00,36.5,36.0,30.10,North,9,0.0,0.0,98,0.00,,,0.01,Wunderground v.1.15,2013-01-03 00:15:00,
2013-01-02 19:20:00,36.6,36.1,30.10,North,9,0.0,0.0,98,0.00,,,0.01,Wunderground v.1.15,2013-01-03 00:20:00,
2013-01-02 19:29:00,36.6,36.0,30.11,North,9,0.0,0.0,98,0.00,,,0.01,weatherlink.com 1.10,2013-01-03 00:29:00,
2013-01-02 19:35:00,36.6,36.1,30.11,North,9,0.0,0.0,98,0.00,,,0.01,Wunderground v.1.15,2013-01-03 00:35:00,
2013-01-02 19:44:00,36.4,36.0,30.12,North,9,0.0,1.0,97,0.00,,,0.01,weatherlink.com 1.10,2013-01-03 00:44:00,
2013-01-02 19:50:00,36.4,35.6,30.11,North,9,0.0,0.0,97,0.00,,,0.01,Wunderground v.1.15,2013-01-03 00:50:00,
2013-01-02 19:59:00,36.4,36.0,30.11,North,9,0.0,1.0,98,0.00,,,0.01,weatherlink.com 1.10,2013-01-03 00:59:00,
2013-01-02 20:05:00,36.4,35.9,30.10,North,9,0.0,0.0,98,0.00,,,0.01,Wunderground v.1.15,2013-01-03 01:05:00,
2013-01-02 20:10:00,36.4,35.9,30.11,North,9,0.0,0.0,98,0.00,,,0.01,Wunderground v.1.15,2013-01-03 01:10:00,
2013-01-02 20:16:00,36.3,36.0,30.12,North,9,0.0,1.0,98,0.00,,,0.01,weatherlink.com 1.10,2013-01-03 01:16:00,
2013-01-02 20:29:00,36.2,36.0,30.11,North,9,0.0,1.0,98,0.00,,,0.01,weatherlink.com 1.10,2013-01-03 01:29:00,
2013-01-02 20:44:00,36.2,36.0,30.11,NE,42,4.0,5.0,97,0.00,,,0.01,weatherlink.com 1.10,2013-01-03 01:44:00,
2013-01-02 20:59:00,36.7,36.0,30.12,NE,47,0.0,5.0,97,0.00,,,0.01,weatherlink.com 1.10,2013-01-03 01:59:00,
2013-01-02 21:14:00,35.8,35.0,30.13,North,355,1.0,3.0,97,0.00,,,0.01,weatherlink.com 1.10,2013-01-03 02:14:00,
2013-01-02 21:29:00,35.6,35.0,30.14,SSW,205,1.0,3.0,98,0.00,,,0.01,weatherlink.com 1.10,2013-01-03 02:29:00,
2013-01-02 21:44:00,36.1,36.0,30.13,NNW,348,1.0,4.0,98,0.00,,,0.01,weatherlink.com 1.10,2013-01-03 02:44:00,
2013-01-02 21:59:00,36.3,36.0,30.13,NE,41,0.0,5.0,98,0.00,,,0.01,weatherlink.com 1.10,2013-01-03 02:59:00,
2013-01-02 22:14:00,36.2,36.0,30.13,NE,54,0.0,4.0,98,0.00,,,0.01,weatherlink.com 1.10,2013-01-03 03:14:00,
2013-01-02 22:29:00,36.2,36.0,30.14,ENE,58,0.0,3.0,98,0.00,,,0.01,weatherlink.com 1.10,2013-01-03 03:29:00,
2013-01-02 22:59:00,36.3,36.0,30.13,SE,146,2.0,3.0,98,0.00,,,0.01,weatherlink.com 1.10,2013-01-03 03:59:00,
2013-01-02 23:14:00,36.6,36.0,30.12,ESE,107,0.0,3.0,99,0.00,,,0.01,weatherlink.com 1.10,2013-01-03 04:14:00,
2013-01-02 23:29:00,36.4,36.0,30.11,East,82,0.0,3.0,98,0.00,,,0.01,weatherlink.com 1.10,2013-01-03 04:29:00,
2013-01-02 23:44:00,36.2,36.0,30.12,WNW,284,1.0,3.0,98,0.00,,,0.01,weatherlink.com 1.10,2013-01-03 04:44:00,
2013-01-02 23:59:00,36.1,36.0,30.12,NNE,30,1.0,2.0,98,0.00,,,0.01,weatherlink.com 1.10,2013-01-03 04:59:00,